Time,TemperatureF,DewpointF,PressureIn,WindDirection,WindDirectionDegrees,WindSpeedMPH,WindSpeedGustMPH,Humidity,HourlyPrecipIn,Conditions,Clouds,dailyrainin,SoftwareType,DateUTC
2013-02-17 00:00:00,27.1,11.8,30.19,SE,127,2.0,4.0,52,0.00,,---,0.00,VWS V14.01,2013-02-17 05:00:00,
2013-02-17 00:05:00,27.7,10.1,30.19,NE,44,0.0,5.0,47,0.00,,---,0.00,VWS V14.01,2013-02-17 05:05:00,
2013-02-17 00:06:00,26.5,10.4,30.18,ENE,57,2.0,2.0,50,0.00,,---,0.00,VWS V14.01,2013-02-17 05:06:00,
2013-02-17 00:10:00,26.4,11.2,30.18,NE,54,0.0,0.0,52,0.00,,---,0.00,VWS V14.01,2013-02-17 05:10:00,
2013-02-17 00:15:00,27.5,10.4,30.18,SW,233,0.0,4.0,48,0.00,,---,0.00,VWS V14.01,2013-02-17 05:15:00,
2013-02-17 00:16:00,26.0,11.6,30.18,NNE,30,0.0,0.0,54,0.00,,---,0.00,VWS V14.01,2013-02-17 05:16:00,
2013-02-17 00:20:00,27.6,10.0,30.18,South,187,2.0,7.0,47,0.00,,---,0.00,VWS V14.01,2013-02-17 05:20:00,
2013-02-17 00:21:00,25.8,11.0,30.19,North,350,0.0,0.0,53,0.00,,---,0.00,VWS V14.01,2013-02-17 05:21:00,
2013-02-17 00:25:00,27.7,9.6,30.18,ESE,103,2.0,3.0,46,0.00,,---,0.00,VWS V14.01,2013-02-17 05:25:00,
2013-02-17 00:26:00,25.9,12.0,30.19,ESE,104,0.0,0.0,55,0.00,,---,0.00,VWS V14.01,2013-02-17 05:26:00,
2013-02-17 00:30:00,27.6,10.0,30.18,WNW,298,0.0,2.0,47,0.00,,---,0.00,VWS V14.01,2013-02-17 05:30:00,
2013-02-17 00:31:00,25.9,11.1,30.19,ESE,104,0.0,0.0,53,0.00,,---,0.00,VWS V14.01,2013-02-17 05:31:00,
2013-02-17 00:35:00,27.2,10.1,30.18,WNW,298,0.0,1.0,48,0.00,,---,0.00,VWS V14.01,2013-02-17 05:35:00,
2013-02-17 00:36:00,25.4,10.2,30.19,ESE,104,0.0,0.0,52,0.00,,---,0.00,VWS V14.01,2013-02-17 05:36:00,
2013-02-17 00:40:00,27.0,10.4,30.18,East,83,0.0,2.0,49,0.00,,---,0.00,VWS V14.01,2013-02-17 05:40:00,
2013-02-17 00:41:00,24.7,10.4,30.19,ESE,104,0.0,0.0,54,0.00,,---,0.00,VWS V14.01,2013-02-17 05:41:00,
2013-02-17 00:45:00,27.0,9.9,30.19,ESE,115,0.0,3.0,48,0.00,,---,0.00,VWS V14.01,2013-02-17 05:45:00,
2013-02-17 00:46:00,24.1,10.7,30.19,ESE,104,0.0,0.0,56,0.00,,---,0.00,VWS V14.01,2013-02-17 05:46:00,
2013-02-17 00:50:00,27.1,10.0,30.19,East,79,2.0,6.0,48,0.00,,---,0.00,VWS V14.01,2013-02-17 05:50:00,
2013-02-17 00:51:00,23.4,11.2,30.19,ESE,103,0.0,0.0,59,0.00,,---,0.00,VWS V14.01,2013-02-17 05:51:00,
2013-02-17 00:55:00,27.1,10.5,30.19,SSE,163,2.0,5.0,49,0.00,,---,0.00,VWS V14.01,2013-02-17 05:55:00,
2013-02-17 00:56:00,23.2,11.0,30.19,ESE,103,0.0,0.0,59,0.00,,---,0.00,VWS V14.01,2013-02-17 05:56:00,
2013-02-17 01:00:00,26.9,12.1,30.19,NE,49,1.0,4.0,53,0.00,,---,0.00,VWS V14.01,2013-02-17 06:00:00,
2013-02-17 01:01:00,22.8,11.0,30.19,ESE,103,0.0,0.0,60,0.00,,---,0.00,VWS V14.01,2013-02-17 06:01:00,
2013-02-17 01:05:00,26.6,10.5,30.18,ENE,66,2.0,2.0,50,0.00,,---,0.00,VWS V14.01,2013-02-17 06:05:00,
2013-02-17 01:06:00,22.8,11.0,30.19,ENE,62,0.0,0.0,60,0.00,,---,0.00,VWS V14.01,2013-02-17 06:06:00,
2013-02-17 01:10:00,26.4,11.2,30.18,NE,54,0.0,2.0,52,0.00,,---,0.00,VWS V14.01,2013-02-17 06:10:00,
2013-02-17 01:11:00,22.8,12.1,30.19,NE,43,0.0,0.0,63,0.00,,---,0.00,VWS V14.01,2013-02-17 06:11:00,
2013-02-17 01:15:00,26.0,11.6,30.18,NNE,30,0.0,1.0,54,0.00,,---,0.00,VWS V14.01,2013-02-17 06:15:00,
2013-02-17 01:16:00,22.3,11.3,30.20,NE,43,0.0,0.0,62,0.00,,---,0.00,VWS V14.01,2013-02-17 06:16:00,
2013-02-17 01:20:00,25.8,11.0,30.18,North,350,0.0,1.0,53,0.00,,---,0.00,VWS V14.01,2013-02-17 06:20:00,
2013-02-17 01:21:00,21.9,11.6,30.20,NE,43,0.0,0.0,64,0.00,,---,0.00,VWS V14.01,2013-02-17 06:21:00,
2013-02-17 01:25:00,25.9,12.0,30.19,ESE,105,0.0,3.0,55,0.00,,---,0.00,VWS V14.01,2013-02-17 06:25:00,
2013-02-17 01:26:00,21.2,11.3,30.20,NE,43,0.0,0.0,65,0.00,,---,0.00,VWS V14.01,2013-02-17 06:26:00,
2013-02-17 01:30:00,25.9,11.1,30.19,ESE,104,0.0,1.0,53,0.00,,---,0.00,VWS V14.01,2013-02-17 06:30:00,
2013-02-17 01:31:00,20.5,11.0,30.20,NE,43,0.0,0.0,66,0.00,,---,0.00,VWS V14.01,2013-02-17 06:31:00,
2013-02-17 01:35:00,25.4,10.2,30.19,ESE,104,0.0,0.0,52,0.00,,---,0.00,VWS V14.01,2013-02-17 06:35:00,
2013-02-17 01:36:00,20.1,12.5,30.20,NE,43,0.0,0.0,72,0.00,,---,0.00,VWS V14.01,2013-02-17 06:36:00,
2013-02-17 01:40:00,24.8,10.5,30.19,ESE,104,0.0,0.0,54,0.00,,---,0.00,VWS V14.01,2013-02-17 06:40:00,
2013-02-17 01:41:00,20.0,12.8,30.20,NE,43,0.0,0.0,73,0.00,,---,0.00,VWS V14.01,2013-02-17 06:41:00,
2013-02-17 01:45:00,24.1,10.7,30.19,ESE,105,0.0,0.0,56,0.00,,---,0.00,VWS V14.01,2013-02-17 06:45:00,
2013-02-17 01:46:00,19.9,13.3,30.20,NE,43,0.0,0.0,75,0.00,,---,0.00,VWS V14.01,2013-02-17 06:46:00,
2013-02-17 01:50:00,23.4,11.2,30.19,ESE,105,0.0,0.0,59,0.00,,---,0.00,VWS V14.01,2013-02-17 06:50:00,
2013-02-17 01:51:00,19.7,11.8,30.20,ESE,117,2.0,2.0,71,0.00,,---,0.00,VWS V14.01,2013-02-17 06:51:00,
2013-02-17 01:55:00,23.2,11.0,30.19,ESE,103,0.0,1.0,59,0.00,,---,0.00,VWS V14.01,2013-02-17 06:55:00,
2013-02-17 01:56:00,19.8,12.2,30.20,ESE,117,0.0,0.0,72,0.00,,---,0.00,VWS V14.01,2013-02-17 06:56:00,
2013-02-17 02:00:00,22.9,11.1,30.19,ESE,103,0.0,1.0,60,0.00,,---,0.00,VWS V14.01,2013-02-17 07:00:00,
2013-02-17 02:01:00,19.8,11.6,30.20,ESE,117,0.0,0.0,70,0.00,,---,0.00,VWS V14.01,2013-02-17 07:01:00,
2013-02-17 02:05:00,22.8,11.4,30.19,ENE,63,0.0,2.0,61,0.00,,---,0.00,VWS V14.01,2013-02-17 07:05:00,
2013-02-17 02:06:00,19.8,12.6,30.20,ESE,117,0.0,0.0,73,0.00,,---,0.00,VWS V14.01,2013-02-17 07:06:00,
2013-02-17 02:10:00,22.8,11.4,30.19,NE,43,0.0,1.0,61,0.00,,---,0.00,VWS V14.01,2013-02-17 07:10:00,
2013-02-17 02:11:00,19.6,12.1,30.21,ESE,117,0.0,0.0,72,0.00,,---,0.00,VWS V14.01,2013-02-17 07:11:00,
2013-02-17 02:15:00,22.4,11.4,30.20,NE,43,0.0,1.0,62,0.00,,---,0.00,VWS V14.01,2013-02-17 07:15:00,
2013-02-17 02:16:00,19.5,12.0,30.21,ESE,117,0.0,0.0,72,0.00,,---,0.00,VWS V14.01,2013-02-17 07:16:00,
2013-02-17 02:20:00,21.9,11.6,30.20,NE,43,0.0,0.0,64,0.00,,---,0.00,VWS V14.01,2013-02-17 07:20:00,
2013-02-17 02:21:00,19.5,12.6,30.20,ESE,117,0.0,0.0,74,0.00,,---,0.00,VWS V14.01,2013-02-17 07:21:00,
2013-02-17 02:25:00,21.3,11.4,30.20,NE,43,0.0,0.0,65,0.00,,---,0.00,VWS V14.01,2013-02-17 07:25:00,
2013-02-17 02:26:00,19.3,12.4,30.20,ESE,117,0.0,0.0,74,0.00,,---,0.00,VWS V14.01,2013-02-17 07:26:00,
2013-02-17 02:30:00,20.5,11.0,30.20,NE,43,0.0,0.0,66,0.00,,---,0.00,VWS V14.01,2013-02-17 07:30:00,
2013-02-17 02:31:00,19.2,12.6,30.20,ESE,117,0.0,0.0,75,0.00,,---,0.00,VWS V14.01,2013-02-17 07:31:00,
2013-02-17 02:35:00,20.1,12.5,30.20,NE,43,0.0,0.0,72,0.00,,---,0.00,VWS V14.01,2013-02-17 07:35:00,
2013-02-17 02:36:00,18.9,12.3,30.21,ESE,117,0.0,0.0,75,0.00,,---,0.00,VWS V14.01,2013-02-17 07:36:00,
2013-02-17 02:40:00,20.0,12.1,30.20,NE,43,0.0,0.0,71,0.00,,---,0.00,VWS V14.01,2013-02-17 07:40:00,
2013-02-17 02:41:00,18.7,12.4,30.21,ESE,117,0.0,0.0,76,0.00,,---,0.00,VWS V14.01,2013-02-17 07:41:00,
2013-02-17 02:45:00,19.9,13.0,30.20,NE,43,0.0,0.0,74,0.00,,---,0.00,VWS V14.01,2013-02-17 07:45:00,
2013-02-17 02:46:00,18.5,12.8,30.21,ESE,117,0.0,0.0,78,0.00,,---,0.00,VWS V14.01,2013-02-17 07:46:00,
2013-02-17 02:50:00,19.8,11.9,30.20,NE,45,0.0,0.0,71,0.00,,---,0.00,VWS V14.01,2013-02-17 07:50:00,
2013-02-17 02:51:00,18.1,12.1,30.21,ESE,117,0.0,0.0,77,0.00,,---,0.00,VWS V14.01,2013-02-17 07:51:00,
2013-02-17 02:55:00,19.8,12.2,30.20,ESE,117,0.0,2.0,72,0.00,,---,0.00,VWS V14.01,2013-02-17 07:55:00,
2013-02-17 02:56:00,17.7,11.7,30.21,ESE,117,0.0,0.0,77,0.00,,---,0.00,VWS V14.01,2013-02-17 07:56:00,
2013-02-17 03:00:00,19.8,11.6,30.20,ESE,117,0.0,1.0,70,0.00,,---,0.00,VWS V14.01,2013-02-17 08:00:00,
2013-02-17 03:01:00,17.4,12.0,30.21,ESE,117,0.0,0.0,79,0.00,,---,0.00,VWS V14.01,2013-02-17 08:01:00,
2013-02-17 03:05:00,19.8,12.6,30.20,ESE,117,0.0,1.0,73,0.00,,---,0.00,VWS V14.01,2013-02-17 08:05:00,
2013-02-17 03:06:00,17.2,12.1,30.21,ESE,117,0.0,0.0,80,0.00,,---,0.00,VWS V14.01,2013-02-17 08:06:00,
2013-02-17 03:10:00,19.7,12.1,30.20,ESE,117,0.0,0.0,72,0.00,,---,0.00,VWS V14.01,2013-02-17 08:10:00,
2013-02-17 03:11:00,17.3,12.5,30.21,ESE,117,0.0,0.0,81,0.00,,---,0.00,VWS V14.01,2013-02-17 08:11:00,
2013-02-17 03:15:00,19.5,12.3,30.21,ESE,117,0.0,0.0,73,0.00,,---,0.00,VWS V14.01,2013-02-17 08:15:00,
2013-02-17 03:16:00,17.4,12.9,30.21,ESE,117,0.0,0.0,82,0.00,,---,0.00,VWS V14.01,2013-02-17 08:16:00,
2013-02-17 03:20:00,19.5,12.6,30.20,ESE,117,0.0,0.0,74,0.00,,---,0.00,VWS V14.01,2013-02-17 08:20:00,
2013-02-17 03:21:00,17.3,12.8,30.21,ESE,117,0.0,0.0,82,0.00,,---,0.00,VWS V14.01,2013-02-17 08:21:00,
2013-02-17 03:25:00,19.3,12.7,30.20,ESE,117,0.0,0.0,75,0.00,,---,0.00,VWS V14.01,2013-02-17 08:25:00,
2013-02-17 03:26:00,17.1,12.8,30.21,ESE,117,0.0,0.0,83,0.00,,---,0.00,VWS V14.01,2013-02-17 08:26:00,
2013-02-17 03:30:00,19.3,12.7,30.21,ESE,117,0.0,1.0,75,0.00,,---,0.00,VWS V14.01,2013-02-17 08:30:00,
2013-02-17 03:31:00,17.1,12.8,30.21,ESE,117,0.0,0.0,83,0.00,,---,0.00,VWS V14.01,2013-02-17 08:31:00,
2013-02-17 03:35:00,19.0,12.4,30.20,ESE,117,0.0,0.0,75,0.00,,---,0.00,VWS V14.01,2013-02-17 08:35:00,
2013-02-17 03:36:00,17.0,12.7,30.22,ESE,117,0.0,0.0,83,0.00,,---,0.00,VWS V14.01,2013-02-17 08:36:00,
2013-02-17 03:40:00,18.7,12.4,30.21,ESE,117,0.0,0.0,76,0.00,,---,0.00,VWS V14.01,2013-02-17 08:40:00,
2013-02-17 03:41:00,17.2,12.9,30.22,ESE,117,0.0,0.0,83,0.00,,---,0.00,VWS V14.01,2013-02-17 08:41:00,
2013-02-17 03:45:00,18.5,12.8,30.21,ESE,117,0.0,0.0,78,0.00,,---,0.00,VWS V14.01,2013-02-17 08:45:00,
2013-02-17 03:46:00,17.3,13.0,30.21,ESE,117,0.0,0.0,83,0.00,,---,0.00,VWS V14.01,2013-02-17 08:46:00,
2013-02-17 03:50:00,18.2,12.2,30.21,ESE,117,0.0,0.0,77,0.00,,---,0.00,VWS V14.01,2013-02-17 08:50:00,
2013-02-17 03:51:00,17.3,13.0,30.21,ESE,117,0.0,0.0,83,0.00,,---,0.00,VWS V14.01,2013-02-17 08:51:00,
2013-02-17 03:55:00,17.7,11.4,30.21,ESE,117,0.0,0.0,76,0.00,,---,0.00,VWS V14.01,2013-02-17 08:55:00,
2013-02-17 03:56:00,17.2,12.9,30.21,ESE,117,0.0,0.0,83,0.00,,---,0.00,VWS V14.01,2013-02-17 08:56:00,
2013-02-17 04:00:00,17.4,12.0,30.21,ESE,117,0.0,0.0,79,0.00,,---,0.00,VWS V14.01,2013-02-17 09:00:00,
2013-02-17 04:01:00,17.0,13.0,30.21,ESE,117,0.0,0.0,84,0.00,,---,0.00,VWS V14.01,2013-02-17 09:01:00,
2013-02-17 04:05:00,17.2,11.8,30.21,ESE,117,0.0,0.0,79,0.00,,---,0.00,VWS V14.01,2013-02-17 09:05:00,
2013-02-17 04:06:00,17.0,13.0,30.21,ESE,117,0.0,0.0,84,0.00,,---,0.00,VWS V14.01,2013-02-17 09:06:00,
2013-02-17 04:10:00,17.3,12.5,30.21,ESE,117,0.0,0.0,81,0.00,,---,0.00,VWS V14.01,2013-02-17 09:10:00,
2013-02-17 04:11:00,16.9,12.6,30.21,ESE,117,0.0,0.0,83,0.00,,---,0.00,VWS V14.01,2013-02-17 09:11:00,
2013-02-17 04:15:00,17.4,12.9,30.21,ESE,117,0.0,0.0,82,0.00,,---,0.00,VWS V14.01,2013-02-17 09:15:00,
2013-02-17 04:16:00,16.9,12.6,30.22,ESE,117,0.0,0.0,83,0.00,,---,0.00,VWS V14.01,2013-02-17 09:16:00,
2013-02-17 04:20:00,17.3,12.8,30.21,ESE,117,0.0,0.0,82,0.00,,---,0.00,VWS V14.01,2013-02-17 09:20:00,
2013-02-17 04:21:00,16.8,12.5,30.21,ESE,117,0.0,0.0,83,0.00,,---,0.00,VWS V14.01,2013-02-17 09:21:00,
2013-02-17 04:25:00,17.1,12.6,30.21,ESE,117,0.0,0.0,82,0.00,,---,0.00,VWS V14.01,2013-02-17 09:25:00,
2013-02-17 04:26:00,16.7,12.7,30.21,ESE,117,0.0,0.0,84,0.00,,---,0.00,VWS V14.01,2013-02-17 09:26:00,
2013-02-17 04:30:00,17.1,12.8,30.21,ESE,117,0.0,0.0,83,0.00,,---,0.00,VWS V14.01,2013-02-17 09:30:00,
2013-02-17 04:31:00,16.6,12.6,30.21,ESE,117,0.0,0.0,84,0.00,,---,0.00,VWS V14.01,2013-02-17 09:31:00,
2013-02-17 04:35:00,17.0,12.7,30.22,ESE,117,0.0,0.0,83,0.00,,---,0.00,VWS V14.01,2013-02-17 09:35:00,
2013-02-17 04:36:00,16.3,12.6,30.21,ESE,117,0.0,0.0,85,0.00,,---,0.00,VWS V14.01,2013-02-17 09:36:00,
2013-02-17 04:40:00,17.1,12.6,30.22,ESE,117,0.0,0.0,82,0.00,,---,0.00,VWS V14.01,2013-02-17 09:40:00,
2013-02-17 04:41:00,16.3,13.1,30.22,ESE,117,0.0,0.0,87,0.00,,---,0.00,VWS V14.01,2013-02-17 09:41:00,
2013-02-17 04:45:00,17.3,13.0,30.21,ESE,117,0.0,0.0,83,0.00,,---,0.00,VWS V14.01,2013-02-17 09:45:00,
2013-02-17 04:46:00,16.2,13.0,30.22,ESE,117,0.0,0.0,87,0.00,,---,0.00,VWS V14.01,2013-02-17 09:46:00,
2013-02-17 04:50:00,17.4,13.1,30.21,ESE,117,0.0,0.0,83,0.00,,---,0.00,VWS V14.01,2013-02-17 09:50:00,
2013-02-17 04:51:00,16.0,12.8,30.22,ESE,117,0.0,0.0,87,0.00,,---,0.00,VWS V14.01,2013-02-17 09:51:00,
2013-02-17 04:55:00,17.2,12.9,30.22,ESE,117,0.0,0.0,83,0.00,,---,0.00,VWS V14.01,2013-02-17 09:55:00,
2013-02-17 04:56:00,16.1,12.7,30.22,ESE,117,0.0,0.0,86,0.00,,---,0.00,VWS V14.01,2013-02-17 09:56:00,
2013-02-17 05:00:00,17.0,13.0,30.21,ESE,117,0.0,0.0,84,0.00,,---,0.00,VWS V14.01,2013-02-17 10:00:00,
2013-02-17 05:01:00,16.2,13.0,30.22,ESE,117,0.0,0.0,87,0.00,,---,0.00,VWS V14.01,2013-02-17 10:01:00,
2013-02-17 05:05:00,16.9,12.9,30.21,ESE,117,0.0,0.0,84,0.00,,---,0.00,VWS V14.01,2013-02-17 10:05:00,
2013-02-17 05:06:00,16.0,12.6,30.22,ESE,117,0.0,0.0,86,0.00,,---,0.00,VWS V14.01,2013-02-17 10:06:00,
2013-02-17 05:10:00,17.0,12.7,30.21,ESE,117,0.0,1.0,83,0.00,,---,0.00,VWS V14.01,2013-02-17 10:10:00,
2013-02-17 05:11:00,15.7,12.5,30.22,ESE,117,0.0,0.0,87,0.00,,---,0.00,VWS V14.01,2013-02-17 10:11:00,
2013-02-17 05:15:00,16.9,12.6,30.21,ESE,117,0.0,0.0,83,0.00,,---,0.00,VWS V14.01,2013-02-17 10:15:00,
2013-02-17 05:16:00,15.7,12.8,30.22,ESE,117,0.0,0.0,88,0.00,,---,0.00,VWS V14.01,2013-02-17 10:16:00,
2013-02-17 05:20:00,16.8,12.5,30.21,ESE,117,0.0,0.0,83,0.00,,---,0.00,VWS V14.01,2013-02-17 10:20:00,
2013-02-17 05:21:00,15.6,12.4,30.23,ESE,117,0.0,0.0,87,0.00,,---,0.00,VWS V14.01,2013-02-17 10:21:00,
2013-02-17 05:25:00,16.8,12.8,30.21,ESE,117,0.0,0.0,84,0.00,,---,0.00,VWS V14.01,2013-02-17 10:25:00,
2013-02-17 05:27:00,15.3,12.1,30.23,ESE,117,0.0,0.0,87,0.00,,---,0.00,VWS V14.01,2013-02-17 10:27:00,
2013-02-17 05:30:00,16.6,12.6,30.21,ESE,117,0.0,0.0,84,0.00,,---,0.00,VWS V14.01,2013-02-17 10:30:00,
2013-02-17 05:32:00,15.0,12.1,30.23,ESE,117,0.0,0.0,88,0.00,,---,0.00,VWS V14.01,2013-02-17 10:32:00,
2013-02-17 05:35:00,16.4,12.7,30.21,ESE,117,0.0,0.0,85,0.00,,---,0.00,VWS V14.01,2013-02-17 10:35:00,
2013-02-17 05:37:00,14.7,11.8,30.23,ESE,117,0.0,0.0,88,0.00,,---,0.00,VWS V14.01,2013-02-17 10:37:00,
2013-02-17 05:40:00,16.3,12.9,30.22,ESE,117,0.0,0.0,86,0.00,,---,0.00,VWS V14.01,2013-02-17 10:40:00,
2013-02-17 05:42:00,14.8,12.1,30.23,ESE,117,0.0,0.0,89,0.00,,---,0.00,VWS V14.01,2013-02-17 10:42:00,
2013-02-17 05:45:00,16.2,13.0,30.22,ESE,117,0.0,0.0,87,0.00,,---,0.00,VWS V14.01,2013-02-17 10:45:00,
2013-02-17 05:47:00,15.0,12.4,30.24,ESE,117,0.0,0.0,89,0.00,,---,0.00,VWS V14.01,2013-02-17 10:47:00,
2013-02-17 05:50:00,16.0,12.8,30.22,ESE,117,0.0,0.0,87,0.00,,---,0.00,VWS V14.01,2013-02-17 10:50:00,
2013-02-17 05:52:00,14.9,12.2,30.24,ESE,117,0.0,0.0,89,0.00,,---,0.00,VWS V14.01,2013-02-17 10:52:00,
2013-02-17 05:55:00,16.1,12.7,30.22,ESE,117,0.0,0.0,86,0.00,,---,0.00,VWS V14.01,2013-02-17 10:55:00,
2013-02-17 05:57:00,15.0,12.4,30.24,ESE,117,0.0,0.0,89,0.00,,---,0.00,VWS V14.01,2013-02-17 10:57:00,
2013-02-17 06:00:00,16.2,12.8,30.22,ESE,117,0.0,0.0,86,0.00,,---,0.00,VWS V14.01,2013-02-17 11:00:00,
2013-02-17 06:02:00,14.8,12.1,30.24,ESE,117,0.0,0.0,89,0.00,,---,0.00,VWS V14.01,2013-02-17 11:02:00,
2013-02-17 06:05:00,16.1,12.7,30.22,ESE,117,0.0,0.0,86,0.00,,---,0.00,VWS V14.01,2013-02-17 11:05:00,
2013-02-17 06:07:00,14.8,12.4,30.24,ESE,117,0.0,0.0,90,0.00,,---,0.00,VWS V14.01,2013-02-17 11:07:00,
2013-02-17 06:10:00,15.7,12.3,30.22,ESE,117,0.0,0.0,86,0.00,,---,0.00,VWS V14.01,2013-02-17 11:10:00,
2013-02-17 06:12:00,14.9,12.2,30.24,ESE,117,0.0,0.0,89,0.00,,---,0.00,VWS V14.01,2013-02-17 11:12:00,
2013-02-17 06:15:00,15.7,12.8,30.22,ESE,117,0.0,0.0,88,0.00,,---,0.00,VWS V14.01,2013-02-17 11:15:00,
2013-02-17 06:17:00,14.9,12.2,30.25,ESE,117,0.0,0.0,89,0.00,,---,0.00,VWS V14.01,2013-02-17 11:17:00,
2013-02-17 06:20:00,15.7,12.5,30.23,ESE,117,0.0,0.0,87,0.00,,---,0.00,VWS V14.01,2013-02-17 11:20:00,
2013-02-17 06:22:00,15.0,12.6,30.24,ESE,117,0.0,0.0,90,0.00,,---,0.00,VWS V14.01,2013-02-17 11:22:00,
2013-02-17 06:25:00,15.4,12.2,30.23,ESE,117,0.0,0.0,87,0.00,,---,0.00,VWS V14.01,2013-02-17 11:25:00,
2013-02-17 06:27:00,14.9,12.5,30.25,ESE,117,0.0,0.0,90,0.00,,---,0.00,VWS V14.01,2013-02-17 11:27:00,
2013-02-17 06:30:00,15.0,11.8,30.23,ESE,117,0.0,0.0,87,0.00,,---,0.00,VWS V14.01,2013-02-17 11:30:00,
2013-02-17 06:32:00,14.9,12.8,30.25,ESE,117,0.0,0.0,91,0.00,,---,0.00,VWS V14.01,2013-02-17 11:32:00,
2013-02-17 06:35:00,14.8,11.9,30.23,ESE,117,0.0,0.0,88,0.00,,---,0.00,VWS V14.01,2013-02-17 11:35:00,
2013-02-17 06:37:00,14.9,12.8,30.25,ESE,117,0.0,0.0,91,0.00,,---,0.00,VWS V14.01,2013-02-17 11:37:00,
2013-02-17 06:40:00,14.8,12.1,30.23,ESE,117,0.0,0.0,89,0.00,,---,0.00,VWS V14.01,2013-02-17 11:40:00,
2013-02-17 06:42:00,14.8,12.6,30.25,ESE,117,0.0,0.0,91,0.00,,---,0.00,VWS V14.01,2013-02-17 11:42:00,
2013-02-17 06:45:00,15.0,12.4,30.24,ESE,117,0.0,0.0,89,0.00,,---,0.00,VWS V14.01,2013-02-17 11:45:00,
2013-02-17 06:47:00,14.7,12.6,30.25,ESE,117,0.0,0.0,91,0.00,,---,0.00,VWS V14.01,2013-02-17 11:47:00,
2013-02-17 06:50:00,14.9,12.2,30.24,ESE,117,0.0,0.0,89,0.00,,---,0.00,VWS V14.01,2013-02-17 11:50:00,
2013-02-17 06:52:00,14.5,12.4,30.25,ESE,117,0.0,0.0,91,0.00,,---,0.00,VWS V14.01,2013-02-17 11:52:00,
2013-02-17 06:55:00,14.9,12.2,30.24,ESE,117,0.0,0.0,89,0.00,,---,0.00,VWS V14.01,2013-02-17 11:55:00,
2013-02-17 06:57:00,14.6,12.7,30.25,ESE,117,0.0,0.0,92,0.00,,---,0.00,VWS V14.01,2013-02-17 11:57:00,
2013-02-17 07:00:00,14.8,12.1,30.24,ESE,117,0.0,0.0,89,0.00,,---,0.00,VWS V14.01,2013-02-17 12:00:00,
2013-02-17 07:02:00,14.6,12.7,30.25,ESE,117,0.0,0.0,92,0.00,,---,0.00,VWS V14.01,2013-02-17 12:02:00,
2013-02-17 07:05:00,14.8,12.4,30.24,ESE,117,0.0,0.0,90,0.00,,---,0.00,VWS V14.01,2013-02-17 12:05:00,
2013-02-17 07:07:00,14.7,12.8,30.25,ESE,117,0.0,0.0,92,0.00,,---,0.00,VWS V14.01,2013-02-17 12:07:00,
2013-02-17 07:10:00,14.9,12.2,30.24,ESE,117,0.0,0.0,89,0.00,,---,0.00,VWS V14.01,2013-02-17 12:10:00,
2013-02-17 07:12:00,14.7,12.8,30.25,ESE,117,0.0,0.0,92,0.00,,---,0.00,VWS V14.01,2013-02-17 12:12:00,
2013-02-17 07:15:00,14.9,12.2,30.24,ESE,117,0.0,0.0,89,0.00,,---,0.00,VWS V14.01,2013-02-17 12:15:00,
2013-02-17 07:17:00,14.6,12.5,30.25,ESE,117,0.0,0.0,91,0.00,,---,0.00,VWS V14.01,2013-02-17 12:17:00,
2013-02-17 07:20:00,14.9,12.2,30.24,ESE,117,0.0,0.0,89,0.00,,---,0.00,VWS V14.01,2013-02-17 12:20:00,
2013-02-17 07:22:00,14.5,12.6,30.26,ESE,117,0.0,0.0,92,0.00,,---,0.00,VWS V14.01,2013-02-17 12:22:00,
2013-02-17 07:25:00,15.0,12.6,30.24,ESE,117,0.0,0.0,90,0.00,,---,0.00,VWS V14.01,2013-02-17 12:25:00,
2013-02-17 07:27:00,14.7,12.8,30.26,ESE,117,0.0,0.0,92,0.00,,---,0.00,VWS V14.01,2013-02-17 12:27:00,
2013-02-17 07:30:00,14.9,12.8,30.25,ESE,117,0.0,0.0,91,0.00,,---,0.00,VWS V14.01,2013-02-17 12:30:00,
2013-02-17 07:32:00,14.9,12.8,30.26,ESE,117,0.0,1.0,91,0.00,,---,0.00,VWS V14.01,2013-02-17 12:32:00,
2013-02-17 07:35:00,14.9,12.8,30.25,ESE,117,0.0,0.0,91,0.00,,---,0.00,VWS V14.01,2013-02-17 12:35:00,
2013-02-17 07:37:00,15.1,12.9,30.26,ESE,117,0.0,1.0,91,0.00,,---,0.00,VWS V14.01,2013-02-17 12:37:00,
2013-02-17 07:40:00,14.9,12.8,30.25,ESE,117,0.0,0.0,91,0.00,,---,0.00,VWS V14.01,2013-02-17 12:40:00,
2013-02-17 07:42:00,15.2,13.1,30.26,ESE,117,0.0,0.0,91,0.00,,---,0.00,VWS V14.01,2013-02-17 12:42:00,
2013-02-17 07:45:00,14.7,12.6,30.25,ESE,117,0.0,0.0,91,0.00,,---,0.00,VWS V14.01,2013-02-17 12:45:00,
2013-02-17 07:47:00,15.7,13.5,30.27,ESE,117,0.0,0.0,91,0.00,,---,0.00,VWS V14.01,2013-02-17 12:47:00,
2013-02-17 07:50:00,14.5,12.4,30.25,ESE,117,0.0,0.0,91,0.00,,---,0.00,VWS V14.01,2013-02-17 12:50:00,
2013-02-17 07:52:00,16.6,14.2,30.27,ESE,117,0.0,0.0,90,0.00,,---,0.00,VWS V14.01,2013-02-17 12:52:00,
2013-02-17 07:55:00,14.6,12.7,30.25,ESE,117,0.0,0.0,92,0.00,,---,0.00,VWS V14.01,2013-02-17 12:55:00,
2013-02-17 07:57:00,18.6,16.4,30.27,ESE,117,0.0,0.0,91,0.00,,---,0.00,VWS V14.01,2013-02-17 12:57:00,
2013-02-17 08:00:00,14.6,12.7,30.25,ESE,117,0.0,0.0,92,0.00,,---,0.00,VWS V14.01,2013-02-17 13:00:00,
2013-02-17 08:02:00,20.8,17.8,30.27,ESE,117,0.0,0.0,88,0.00,,---,0.00,VWS V14.01,2013-02-17 13:02:00,
2013-02-17 08:05:00,14.7,12.8,30.25,ESE,117,0.0,0.0,92,0.00,,---,0.00,VWS V14.01,2013-02-17 13:05:00,
2013-02-17 08:07:00,22.4,18.0,30.27,ESE,117,0.0,0.0,83,0.00,,---,0.00,VWS V14.01,2013-02-17 13:07:00,
2013-02-17 08:10:00,14.7,12.8,30.25,ESE,117,0.0,0.0,92,0.00,,---,0.00,VWS V14.01,2013-02-17 13:10:00,
2013-02-17 08:12:00,23.8,18.2,30.28,ESE,117,0.0,0.0,79,0.00,,---,0.00,VWS V14.01,2013-02-17 13:12:00,
2013-02-17 08:15:00,14.6,12.5,30.25,ESE,117,0.0,0.0,91,0.00,,---,0.00,VWS V14.01,2013-02-17 13:15:00,
2013-02-17 08:17:00,24.3,17.8,30.28,ESE,117,0.0,0.0,76,0.00,,---,0.00,VWS V14.01,2013-02-17 13:17:00,
2013-02-17 08:20:00,14.6,12.7,30.26,ESE,117,0.0,0.0,92,0.00,,---,0.00,VWS V14.01,2013-02-17 13:20:00,
2013-02-17 08:22:00,25.4,19.2,30.28,ESE,117,0.0,0.0,77,0.00,,---,0.00,VWS V14.01,2013-02-17 13:22:00,
2013-02-17 08:25:00,14.6,12.7,30.26,ESE,117,0.0,0.0,92,0.00,,---,0.00,VWS V14.01,2013-02-17 13:25:00,
2013-02-17 08:27:00,26.1,19.9,30.28,ESE,117,0.0,0.0,77,0.00,,---,0.00,VWS V14.01,2013-02-17 13:27:00,
2013-02-17 08:30:00,14.8,12.6,30.26,ESE,117,0.0,0.0,91,0.00,,---,0.00,VWS V14.01,2013-02-17 13:30:00,
2013-02-17 08:32:00,27.1,19.9,30.28,NNE,24,1.0,1.0,74,0.00,,---,0.00,VWS V14.01,2013-02-17 13:32:00,
2013-02-17 08:35:00,15.1,12.9,30.26,ESE,117,0.0,1.0,91,0.00,,---,0.00,VWS V14.01,2013-02-17 13:35:00,
2013-02-17 08:37:00,27.2,18.0,30.29,NNE,20,3.0,3.0,68,0.00,,---,0.00,VWS V14.01,2013-02-17 13:37:00,
2013-02-17 08:40:00,15.1,12.9,30.26,ESE,117,0.0,1.0,91,0.00,,---,0.00,VWS V14.01,2013-02-17 13:40:00,
2013-02-17 08:42:00,26.7,16.9,30.29,NNW,333,0.0,4.0,66,0.00,,---,0.00,VWS V14.01,2013-02-17 13:42:00,
2013-02-17 08:45:00,15.4,13.2,30.27,ESE,117,0.0,0.0,91,0.00,,---,0.00,VWS V14.01,2013-02-17 13:45:00,
2013-02-17 08:47:00,26.7,16.9,30.29,ENE,58,2.0,5.0,66,0.00,,---,0.00,VWS V14.01,2013-02-17 13:47:00,
2013-02-17 08:50:00,16.3,13.9,30.27,ESE,117,0.0,0.0,90,0.00,,---,0.00,VWS V14.01,2013-02-17 13:50:00,
2013-02-17 08:52:00,26.9,16.7,30.29,NNE,24,2.0,4.0,65,0.00,,---,0.00,VWS V14.01,2013-02-17 13:52:00,
2013-02-17 08:55:00,18.0,15.8,30.27,ESE,117,0.0,0.0,91,0.00,,---,0.00,VWS V14.01,2013-02-17 13:55:00,
2013-02-17 08:57:00,27.0,16.8,30.29,NNE,20,6.0,6.0,65,0.00,,---,0.00,VWS V14.01,2013-02-17 13:57:00,
2013-02-17 09:00:00,20.1,17.6,30.27,ESE,117,0.0,0.0,90,0.00,,---,0.00,VWS V14.01,2013-02-17 14:00:00,
2013-02-17 09:02:00,27.4,16.5,30.29,ENE,73,1.0,6.0,63,0.00,,---,0.00,VWS V14.01,2013-02-17 14:02:00,
2013-02-17 09:05:00,21.9,18.1,30.27,ESE,117,0.0,0.0,85,0.00,,---,0.00,VWS V14.01,2013-02-17 14:05:00,
2013-02-17 09:07:00,27.8,16.5,30.29,NNE,25,4.0,6.0,62,0.00,,---,0.00,VWS V14.01,2013-02-17 14:07:00,
2013-02-17 09:10:00,23.4,18.4,30.27,ESE,117,0.0,0.0,81,0.00,,---,0.00,VWS V14.01,2013-02-17 14:10:00,
2013-02-17 09:12:00,27.9,16.2,30.30,NNE,30,5.0,6.0,61,0.00,,---,0.00,VWS V14.01,2013-02-17 14:12:00,
2013-02-17 09:15:00,24.3,18.4,30.28,ESE,117,0.0,0.0,78,0.00,,---,0.00,VWS V14.01,2013-02-17 14:15:00,
2013-02-17 09:17:00,28.3,16.2,30.30,North,356,2.0,6.0,60,0.00,,---,0.00,VWS V14.01,2013-02-17 14:17:00,
2013-02-17 09:20:00,25.0,18.8,30.28,ESE,117,0.0,0.0,77,0.00,,---,0.00,VWS V14.01,2013-02-17 14:20:00,
2013-02-17 09:22:00,28.8,17.1,30.30,NE,34,1.0,4.0,61,0.00,,---,0.00,VWS V14.01,2013-02-17 14:22:00,
2013-02-17 09:25:00,25.7,18.9,30.28,ESE,117,0.0,0.0,75,0.00,,---,0.00,VWS V14.01,2013-02-17 14:25:00,
2013-02-17 09:27:00,29.3,16.0,30.30,NW,323,3.0,7.0,57,0.00,,---,0.00,VWS V14.01,2013-02-17 14:27:00,
2013-02-17 09:30:00,26.8,20.0,30.28,ESE,117,0.0,0.0,75,0.00,,---,0.00,VWS V14.01,2013-02-17 14:30:00,
2013-02-17 09:32:00,29.6,15.4,30.30,North,351,1.0,9.0,55,0.00,,---,0.00,VWS V14.01,2013-02-17 14:32:00,
2013-02-17 09:35:00,27.3,18.8,30.28,NNW,339,1.0,1.0,70,0.00,,---,0.00,VWS V14.01,2013-02-17 14:35:00,
2013-02-17 09:37:00,29.8,16.4,30.30,ENE,66,2.0,8.0,57,0.00,,---,0.00,VWS V14.01,2013-02-17 14:37:00,
2013-02-17 09:40:00,26.9,17.1,30.29,NW,316,1.0,5.0,66,0.00,,---,0.00,VWS V14.01,2013-02-17 14:40:00,
2013-02-17 09:42:00,30.2,16.8,30.30,NNW,335,2.0,4.0,57,0.00,,---,0.00,VWS V14.01,2013-02-17 14:42:00,
2013-02-17 09:45:00,26.7,16.9,30.29,NE,34,3.0,6.0,66,0.00,,---,0.00,VWS V14.01,2013-02-17 14:45:00,
2013-02-17 09:47:00,30.8,16.5,30.30,ENE,69,4.0,5.0,55,0.00,,---,0.00,VWS V14.01,2013-02-17 14:47:00,
2013-02-17 09:50:00,26.7,16.9,30.29,NW,319,0.0,5.0,66,0.00,,---,0.00,VWS V14.01,2013-02-17 14:50:00,
2013-02-17 09:52:00,31.2,16.5,30.30,NE,56,7.0,8.0,54,0.00,,---,0.00,VWS V14.01,2013-02-17 14:52:00,
2013-02-17 09:55:00,26.9,16.7,30.29,NNE,27,1.0,4.0,65,0.00,,---,0.00,VWS V14.01,2013-02-17 14:55:00,
2013-02-17 09:57:00,31.6,16.5,30.30,NW,316,3.0,5.0,53,0.00,,---,0.00,VWS V14.01,2013-02-17 14:57:00,
2013-02-17 10:00:00,27.2,17.0,30.29,NNW,328,3.0,6.0,65,0.00,,---,0.00,VWS V14.01,2013-02-17 15:00:00,
2013-02-17 10:03:00,32.2,15.7,30.31,North,357,6.0,8.0,50,0.00,,---,0.00,VWS V14.01,2013-02-17 15:03:00,
2013-02-17 10:05:00,27.7,17.1,30.30,NW,326,3.0,6.0,64,0.00,,---,0.00,VWS V14.01,2013-02-17 15:05:00,
2013-02-17 10:08:00,32.3,15.8,30.31,NE,50,6.0,6.0,50,0.00,,---,0.00,VWS V14.01,2013-02-17 15:08:00,
2013-02-17 10:10:00,27.9,16.2,30.30,NE,34,2.0,9.0,61,0.00,,---,0.00,VWS V14.01,2013-02-17 15:10:00,
2013-02-17 10:13:00,32.6,16.0,30.31,NNW,346,4.0,8.0,50,0.00,,---,0.00,VWS V14.01,2013-02-17 15:13:00,
2013-02-17 10:15:00,28.1,16.4,30.30,ENE,62,2.0,6.0,61,0.00,,---,0.00,VWS V14.01,2013-02-17 15:15:00,
2013-02-17 10:18:00,32.7,15.7,30.31,NW,326,2.0,6.0,49,0.00,,---,0.00,VWS V14.01,2013-02-17 15:18:00,
2013-02-17 10:20:00,28.6,16.9,30.30,ENE,65,1.0,8.0,61,0.00,,---,0.00,VWS V14.01,2013-02-17 15:20:00,
2013-02-17 10:23:00,33.2,16.6,30.31,ENE,72,3.0,6.0,50,0.00,,---,0.00,VWS V14.01,2013-02-17 15:23:00,
2013-02-17 10:25:00,29.1,16.2,30.30,NNW,346,6.0,6.0,58,0.00,,---,0.00,VWS V14.01,2013-02-17 15:25:00,
2013-02-17 10:28:00,33.6,16.0,30.31,NNW,333,3.0,6.0,48,0.00,,---,0.00,VWS V14.01,2013-02-17 15:28:00,
2013-02-17 10:30:00,29.6,16.6,30.30,ENE,58,2.0,7.0,58,0.00,,---,0.00,VWS V14.01,2013-02-17 15:30:00,
2013-02-17 10:33:00,34.1,16.5,30.31,ENE,71,2.0,7.0,48,0.00,,---,0.00,VWS V14.01,2013-02-17 15:33:00,
2013-02-17 10:35:00,29.7,16.4,30.30,ENE,65,4.0,9.0,57,0.00,,---,0.00,VWS V14.01,2013-02-17 15:35:00,
2013-02-17 10:38:00,35.0,17.3,30.31,NNW,336,3.0,4.0,48,0.00,,---,0.00,VWS V14.01,2013-02-17 15:38:00,
2013-02-17 10:40:00,30.1,16.7,30.30,ENE,59,4.0,8.0,57,0.00,,---,0.00,VWS V14.01,2013-02-17 15:40:00,
2013-02-17 10:43:00,35.2,17.0,30.31,SE,129,3.0,8.0,47,0.00,,---,0.00,VWS V14.01,2013-02-17 15:43:00,
2013-02-17 10:45:00,30.6,16.4,30.30,NE,53,1.0,9.0,55,0.00,,---,0.00,VWS V14.01,2013-02-17 15:45:00,
2013-02-17 10:48:00,35.1,16.4,30.31,WSW,238,0.0,9.0,46,0.00,,---,0.00,VWS V14.01,2013-02-17 15:48:00,
2013-02-17 10:50:00,31.1,16.4,30.30,North,356,2.0,6.0,54,0.00,,---,0.00,VWS V14.01,2013-02-17 15:50:00,
2013-02-17 10:53:00,35.3,15.6,30.31,ENE,60,4.0,8.0,44,0.00,,---,0.00,VWS V14.01,2013-02-17 15:53:00,
2013-02-17 10:55:00,31.3,15.7,30.30,NE,56,0.0,8.0,52,0.00,,---,0.00,VWS V14.01,2013-02-17 15:55:00,
2013-02-17 10:58:00,35.3,16.1,30.31,WNW,297,2.0,6.0,45,0.00,,---,0.00,VWS V14.01,2013-02-17 15:58:00,
2013-02-17 11:00:00,32.1,16.0,30.30,NNW,328,4.0,9.0,51,0.00,,---,0.00,VWS V14.01,2013-02-17 16:00:00,
2013-02-17 11:03:00,35.7,15.4,30.31,ESE,111,5.0,16.0,43,0.00,,---,0.00,VWS V14.01,2013-02-17 16:03:00,
2013-02-17 11:05:00,32.2,15.2,30.30,NNE,20,4.0,9.0,49,0.00,,---,0.00,VWS V14.01,2013-02-17 16:05:00,
2013-02-17 11:08:00,36.0,15.7,30.31,SW,226,2.0,11.0,43,0.00,,---,0.00,VWS V14.01,2013-02-17 16:08:00,
2013-02-17 11:10:00,32.4,15.9,30.31,NW,311,4.0,7.0,50,0.00,,---,0.00,VWS V14.01,2013-02-17 16:10:00,
2013-02-17 11:13:00,36.4,16.0,30.31,ESE,109,3.0,8.0,43,0.00,,---,0.00,VWS V14.01,2013-02-17 16:13:00,
2013-02-17 11:15:00,32.7,16.1,30.30,NE,44,4.0,8.0,50,0.00,,---,0.00,VWS V14.01,2013-02-17 16:15:00,
2013-02-17 11:18:00,36.9,16.5,30.31,South,176,3.0,7.0,43,0.00,,---,0.00,VWS V14.01,2013-02-17 16:18:00,
2013-02-17 11:20:00,32.9,15.9,30.31,ESE,113,2.0,6.0,49,0.00,,---,0.00,VWS V14.01,2013-02-17 16:20:00,
2013-02-17 11:23:00,36.7,15.2,30.31,ESE,115,1.0,7.0,41,0.00,,---,0.00,VWS V14.01,2013-02-17 16:23:00,
2013-02-17 11:25:00,33.5,16.9,30.31,ENE,59,6.0,6.0,50,0.00,,---,0.00,VWS V14.01,2013-02-17 16:25:00,
2013-02-17 11:28:00,37.5,16.0,30.31,WSW,252,0.0,7.0,41,0.00,,---,0.00,VWS V14.01,2013-02-17 16:28:00,
2013-02-17 11:30:00,33.9,16.8,30.31,NNE,13,7.0,9.0,49,0.00,,---,0.00,VWS V14.01,2013-02-17 16:30:00,
2013-02-17 11:33:00,38.0,16.4,30.31,West,260,5.0,8.0,41,0.00,,---,0.00,VWS V14.01,2013-02-17 16:33:00,
2013-02-17 11:35:00,34.5,17.3,30.31,NE,49,1.0,7.0,49,0.00,,---,0.00,VWS V14.01,2013-02-17 16:35:00,
2013-02-17 11:38:00,37.7,15.6,30.31,SSE,152,4.0,5.0,40,0.00,,---,0.00,VWS V14.01,2013-02-17 16:38:00,
2013-02-17 11:40:00,35.1,16.9,30.31,East,89,4.0,8.0,47,0.00,,---,0.00,VWS V14.01,2013-02-17 16:40:00,
2013-02-17 11:43:00,37.9,15.8,30.31,East,82,3.0,6.0,40,0.00,,---,0.00,VWS V14.01,2013-02-17 16:43:00,
2013-02-17 11:45:00,35.1,16.9,30.31,ENE,73,9.0,9.0,47,0.00,,---,0.00,VWS V14.01,2013-02-17 16:45:00,
2013-02-17 11:48:00,38.3,16.1,30.31,ENE,73,3.0,8.0,40,0.00,,---,0.00,VWS V14.01,2013-02-17 16:48:00,
2013-02-17 11:50:00,35.5,16.3,30.31,East,96,5.0,9.0,45,0.00,,---,0.00,VWS V14.01,2013-02-17 16:50:00,
2013-02-17 11:53:00,39.2,16.9,30.31,ESE,108,3.0,10.0,40,0.00,,---,0.00,VWS V14.01,2013-02-17 16:53:00,
2013-02-17 11:55:00,35.1,15.9,30.31,West,270,3.0,8.0,45,0.00,,---,0.00,VWS V14.01,2013-02-17 16:55:00,
2013-02-17 11:58:00,39.1,15.6,30.30,ENE,63,0.0,11.0,38,0.00,,---,0.00,VWS V14.01,2013-02-17 16:58:00,
2013-02-17 12:00:00,35.6,15.9,30.31,ENE,57,7.0,10.0,44,0.00,,---,0.00,VWS V14.01,2013-02-17 17:00:00,
2013-02-17 12:03:00,39.3,17.0,30.30,SSE,166,6.0,6.0,40,0.00,,---,0.00,VWS V14.01,2013-02-17 17:03:00,
2013-02-17 12:05:00,36.0,16.2,30.31,ESE,111,7.0,16.0,44,0.00,,---,0.00,VWS V14.01,2013-02-17 17:05:00,
2013-02-17 12:08:00,39.2,16.3,30.30,NE,46,1.0,11.0,39,0.00,,---,0.00,VWS V14.01,2013-02-17 17:08:00,
2013-02-17 12:10:00,36.3,16.5,30.31,East,96,4.0,11.0,44,0.00,,---,0.00,VWS V14.01,2013-02-17 17:10:00,
2013-02-17 12:13:00,40.2,17.2,30.30,South,173,2.0,5.0,39,0.00,,---,0.00,VWS V14.01,2013-02-17 17:13:00,
2013-02-17 12:15:00,36.6,16.2,30.31,SSE,160,7.0,8.0,43,0.00,,---,0.00,VWS V14.01,2013-02-17 17:15:00,
2013-02-17 12:18:00,40.3,16.7,30.29,ENE,63,4.0,4.0,38,0.00,,---,0.00,VWS V14.01,2013-02-17 17:18:00,
2013-02-17 12:20:00,36.8,15.3,30.31,East,91,4.0,8.0,41,0.00,,---,0.00,VWS V14.01,2013-02-17 17:20:00,
2013-02-17 12:23:00,39.8,14.4,30.29,WNW,293,0.0,10.0,35,0.00,,---,0.00,VWS V14.01,2013-02-17 17:23:00,
2013-02-17 12:25:00,37.3,16.3,30.31,NNE,23,1.0,7.0,42,0.00,,---,0.00,VWS V14.01,2013-02-17 17:25:00,
2013-02-17 12:28:00,39.8,14.4,30.29,ENE,71,4.0,7.0,35,0.00,,---,0.00,VWS V14.01,2013-02-17 17:28:00,
2013-02-17 12:30:00,37.9,16.3,30.31,WNW,282,2.0,7.0,41,0.00,,---,0.00,VWS V14.01,2013-02-17 17:30:00,
2013-02-17 12:33:00,39.8,15.7,30.28,SW,221,1.0,4.0,37,0.00,,---,0.00,VWS V14.01,2013-02-17 17:33:00,
2013-02-17 12:35:00,38.0,15.8,30.31,ESE,102,3.0,8.0,40,0.00,,---,0.00,VWS V14.01,2013-02-17 17:35:00,
2013-02-17 12:38:00,40.5,15.0,30.28,SSE,150,3.0,11.0,35,0.00,,---,0.00,VWS V14.01,2013-02-17 17:38:00,
2013-02-17 12:40:00,37.7,15.6,30.31,NNW,342,1.0,5.0,40,0.00,,---,0.00,VWS V14.01,2013-02-17 17:40:00,
2013-02-17 12:43:00,40.7,14.5,30.29,South,169,3.0,9.0,34,0.00,,---,0.00,VWS V14.01,2013-02-17 17:43:00,
2013-02-17 12:45:00,37.9,16.3,30.31,South,183,0.0,6.0,41,0.00,,---,0.00,VWS V14.01,2013-02-17 17:45:00,
2013-02-17 12:48:00,40.7,14.5,30.28,ENE,65,4.0,6.0,34,0.00,,---,0.00,VWS V14.01,2013-02-17 17:48:00,
2013-02-17 12:50:00,38.7,17.0,30.31,SW,217,1.0,8.0,41,0.00,,---,0.00,VWS V14.01,2013-02-17 17:50:00,
2013-02-17 12:53:00,40.5,14.4,30.28,SSE,159,5.0,9.0,34,0.00,,---,0.00,VWS V14.01,2013-02-17 17:53:00,
2013-02-17 12:55:00,39.4,15.9,30.31,SE,124,3.0,10.0,38,0.00,,---,0.00,VWS V14.01,2013-02-17 17:55:00,
2013-02-17 12:58:00,41.3,14.4,30.28,SSE,151,3.0,7.0,33,0.00,,---,0.00,VWS V14.01,2013-02-17 17:58:00,
2013-02-17 13:00:00,39.1,15.6,30.30,SW,229,5.0,11.0,38,0.00,,---,0.00,VWS V14.01,2013-02-17 18:00:00,
2013-02-17 13:03:00,41.6,14.6,30.28,SSW,204,5.0,5.0,33,0.00,,---,0.00,VWS V14.01,2013-02-17 18:03:00,
2013-02-17 13:05:00,39.4,15.3,30.30,WSW,249,8.0,8.0,37,0.00,,---,0.00,VWS V14.01,2013-02-17 18:05:00,
2013-02-17 13:08:00,41.9,14.2,30.27,NE,56,7.0,8.0,32,0.00,,---,0.00,VWS V14.01,2013-02-17 18:08:00,
2013-02-17 13:10:00,39.7,16.8,30.30,ESE,116,4.0,11.0,39,0.00,,---,0.00,VWS V14.01,2013-02-17 18:10:00,
2013-02-17 13:13:00,41.2,12.9,30.27,ENE,60,6.0,8.0,31,0.00,,---,0.00,VWS V14.01,2013-02-17 18:13:00,
2013-02-17 13:15:00,40.3,15.5,30.30,East,93,2.0,5.0,36,0.00,,---,0.00,VWS V14.01,2013-02-17 18:15:00,
2013-02-17 13:18:00,41.2,14.3,30.27,SW,228,1.0,6.0,33,0.00,,---,0.00,VWS V14.01,2013-02-17 18:18:00,
2013-02-17 13:20:00,40.2,14.8,30.29,East,90,5.0,8.0,35,0.00,,---,0.00,VWS V14.01,2013-02-17 18:20:00,
2013-02-17 13:23:00,42.0,14.3,30.27,East,89,1.0,9.0,32,0.00,,---,0.00,VWS V14.01,2013-02-17 18:23:00,
2013-02-17 13:25:00,39.9,15.1,30.29,WSW,246,1.0,10.0,36,0.00,,---,0.00,VWS V14.01,2013-02-17 18:25:00,
2013-02-17 13:28:00,41.6,12.5,30.26,SSW,197,2.0,9.0,30,0.00,,---,0.00,VWS V14.01,2013-02-17 18:28:00,
2013-02-17 13:30:00,39.6,14.9,30.29,NE,41,0.0,7.0,36,0.00,,---,0.00,VWS V14.01,2013-02-17 18:30:00,
2013-02-17 13:33:00,42.2,14.5,30.26,SE,139,4.0,4.0,32,0.00,,---,0.00,VWS V14.01,2013-02-17 18:33:00,
2013-02-17 13:35:00,40.2,14.8,30.28,SSW,207,2.0,6.0,35,0.00,,---,0.00,VWS V14.01,2013-02-17 18:35:00,
2013-02-17 13:38:00,42.6,13.4,30.26,SW,231,0.0,3.0,30,0.00,,---,0.00,VWS V14.01,2013-02-17 18:38:00,
2013-02-17 13:40:00,40.7,15.2,30.28,SSE,149,5.0,11.0,35,0.00,,---,0.00,VWS V14.01,2013-02-17 18:40:00,
2013-02-17 13:43:00,42.3,11.5,30.26,SSE,155,4.0,11.0,28,0.00,,---,0.00,VWS V14.01,2013-02-17 18:43:00,
2013-02-17 13:45:00,40.5,13.7,30.28,NNW,345,4.0,9.0,33,0.00,,---,0.00,VWS V14.01,2013-02-17 18:45:00,
2013-02-17 13:48:00,42.7,13.4,30.25,SE,129,2.0,3.0,30,0.00,,---,0.00,VWS V14.01,2013-02-17 18:48:00,
2013-02-17 13:50:00,40.7,13.9,30.28,East,87,5.0,10.0,33,0.00,,---,0.00,VWS V14.01,2013-02-17 18:50:00,
2013-02-17 13:53:00,42.9,13.6,30.25,SW,217,3.0,6.0,30,0.00,,---,0.00,VWS V14.01,2013-02-17 18:53:00,
2013-02-17 13:55:00,40.9,14.7,30.28,East,87,1.0,9.0,34,0.00,,---,0.00,VWS V14.01,2013-02-17 18:55:00,
2013-02-17 13:58:00,42.8,12.8,30.25,WSW,249,1.0,9.0,29,0.00,,---,0.00,VWS V14.01,2013-02-17 18:58:00,
2013-02-17 14:00:00,41.2,14.3,30.28,SW,232,2.0,15.0,33,0.00,,---,0.00,VWS V14.01,2013-02-17 19:00:00,
2013-02-17 14:03:00,42.9,12.1,30.25,South,184,3.0,7.0,28,0.00,,---,0.00,VWS V14.01,2013-02-17 19:03:00,
2013-02-17 14:05:00,41.8,14.8,30.27,East,89,2.0,6.0,33,0.00,,---,0.00,VWS V14.01,2013-02-17 19:05:00,
2013-02-17 14:08:00,42.8,13.5,30.24,SW,219,5.0,7.0,30,0.00,,---,0.00,VWS V14.01,2013-02-17 19:08:00,
2013-02-17 14:10:00,41.5,13.9,30.28,ESE,123,3.0,11.0,32,0.00,,---,0.00,VWS V14.01,2013-02-17 19:10:00,
2013-02-17 14:13:00,42.8,13.5,30.24,SSW,212,9.0,9.0,30,0.00,,---,0.00,VWS V14.01,2013-02-17 19:13:00,
2013-02-17 14:15:00,41.1,13.5,30.27,NNE,18,2.0,8.0,32,0.00,,---,0.00,VWS V14.01,2013-02-17 19:15:00,
2013-02-17 14:18:00,42.9,12.1,30.24,SSE,159,2.0,7.0,28,0.00,,---,0.00,VWS V14.01,2013-02-17 19:18:00,
2013-02-17 14:20:00,41.6,14.6,30.27,NE,39,2.0,6.0,33,0.00,,---,0.00,VWS V14.01,2013-02-17 19:20:00,
2013-02-17 14:23:00,42.8,12.0,30.24,SSW,194,6.0,16.0,28,0.00,,---,0.00,VWS V14.01,2013-02-17 19:23:00,
2013-02-17 14:25:00,41.9,13.5,30.27,SE,126,6.0,9.0,31,0.00,,---,0.00,VWS V14.01,2013-02-17 19:25:00,
2013-02-17 14:28:00,42.8,12.8,30.24,SSE,151,4.0,6.0,29,0.00,,---,0.00,VWS V14.01,2013-02-17 19:28:00,
2013-02-17 14:30:00,41.7,13.3,30.26,ENE,65,2.0,9.0,31,0.00,,---,0.00,VWS V14.01,2013-02-17 19:30:00,
2013-02-17 14:33:00,43.4,14.1,30.24,ENE,68,2.0,4.0,30,0.00,,---,0.00,VWS V14.01,2013-02-17 19:33:00,
2013-02-17 14:35:00,42.5,14.0,30.26,SW,232,0.0,6.0,31,0.00,,---,0.00,VWS V14.01,2013-02-17 19:35:00,
2013-02-17 14:38:00,44.3,14.1,30.24,ESE,121,3.0,9.0,29,0.00,,---,0.00,VWS V14.01,2013-02-17 19:38:00,
2013-02-17 14:40:00,42.6,11.8,30.26,NE,53,9.0,11.0,28,0.00,,---,0.00,VWS V14.01,2013-02-17 19:40:00,
2013-02-17 14:43:00,44.6,14.3,30.23,SE,136,4.0,4.0,29,0.00,,---,0.00,VWS V14.01,2013-02-17 19:43:00,
2013-02-17 14:45:00,42.3,12.3,30.26,SW,217,1.0,11.0,29,0.00,,---,0.00,VWS V14.01,2013-02-17 19:45:00,
2013-02-17 14:48:00,44.5,12.6,30.24,ENE,76,5.0,9.0,27,0.00,,---,0.00,VWS V14.01,2013-02-17 19:48:00,
2013-02-17 14:50:00,42.9,12.9,30.25,SE,131,6.0,9.0,29,0.00,,---,0.00,VWS V14.01,2013-02-17 19:50:00,
2013-02-17 14:53:00,44.7,12.8,30.23,NW,319,3.0,6.0,27,0.00,,---,0.00,VWS V14.01,2013-02-17 19:53:00,
2013-02-17 14:55:00,43.1,12.2,30.25,ESE,109,5.0,8.0,28,0.00,,---,0.00,VWS V14.01,2013-02-17 19:55:00,
2013-02-17 14:58:00,44.2,13.2,30.23,SSW,200,6.0,12.0,28,0.00,,---,0.00,VWS V14.01,2013-02-17 19:58:00,
2013-02-17 15:00:00,42.9,12.9,30.25,WNW,295,1.0,9.0,29,0.00,,---,0.00,VWS V14.01,2013-02-17 20:00:00,
2013-02-17 15:03:00,44.5,13.4,30.23,ENE,65,3.0,14.0,28,0.00,,---,0.00,VWS V14.01,2013-02-17 20:03:00,
2013-02-17 15:05:00,42.8,12.8,30.24,NW,307,0.0,7.0,29,0.00,,---,0.00,VWS V14.01,2013-02-17 20:05:00,
2013-02-17 15:08:00,44.7,13.6,30.23,ESE,117,3.0,6.0,28,0.00,,---,0.00,VWS V14.01,2013-02-17 20:08:00,
2013-02-17 15:10:00,42.6,11.8,30.24,SW,219,6.0,7.0,28,0.00,,---,0.00,VWS V14.01,2013-02-17 20:10:00,
2013-02-17 15:13:00,44.8,13.7,30.23,SSE,166,2.0,4.0,28,0.00,,---,0.00,VWS V14.01,2013-02-17 20:13:00,
2013-02-17 15:15:00,42.9,12.9,30.24,SW,231,5.0,9.0,29,0.00,,---,0.00,VWS V14.01,2013-02-17 20:15:00,
2013-02-17 15:18:00,45.6,14.4,30.23,ESE,111,4.0,12.0,28,0.00,,---,0.00,VWS V14.01,2013-02-17 20:18:00,
2013-02-17 15:20:00,43.0,12.9,30.24,SSE,167,6.0,7.0,29,0.00,,---,0.00,VWS V14.01,2013-02-17 20:20:00,
2013-02-17 15:23:00,45.4,13.4,30.23,SE,143,1.0,12.0,27,0.00,,---,0.00,VWS V14.01,2013-02-17 20:23:00,
2013-02-17 15:25:00,42.6,11.8,30.24,South,172,2.0,16.0,28,0.00,,---,0.00,VWS V14.01,2013-02-17 20:25:00,
2013-02-17 15:28:00,45.5,14.3,30.23,SW,224,3.0,4.0,28,0.00,,---,0.00,VWS V14.01,2013-02-17 20:28:00,
2013-02-17 15:30:00,42.9,12.9,30.24,NW,305,2.0,7.0,29,0.00,,---,0.00,VWS V14.01,2013-02-17 20:30:00,
2013-02-17 15:33:00,45.5,14.3,30.23,SE,131,3.0,9.0,28,0.00,,---,0.00,VWS V14.01,2013-02-17 20:33:00,
2013-02-17 15:35:00,44.0,14.6,30.24,ENE,78,3.0,4.0,30,0.00,,---,0.00,VWS V14.01,2013-02-17 20:35:00,
2013-02-17 15:38:00,45.5,14.3,30.23,ESE,120,1.0,7.0,28,0.00,,---,0.00,VWS V14.01,2013-02-17 20:38:00,
2013-02-17 15:40:00,44.3,13.3,30.23,South,181,3.0,14.0,28,0.00,,---,0.00,VWS V14.01,2013-02-17 20:40:00,
2013-02-17 15:43:00,45.4,13.4,30.23,NNW,346,0.0,7.0,27,0.00,,---,0.00,VWS V14.01,2013-02-17 20:43:00,
2013-02-17 15:45:00,44.5,12.6,30.24,SE,135,1.0,9.0,27,0.00,,---,0.00,VWS V14.01,2013-02-17 20:45:00,
2013-02-17 15:48:00,45.9,16.2,30.23,East,83,5.0,7.0,30,0.00,,---,0.00,VWS V14.01,2013-02-17 20:48:00,
2013-02-17 15:50:00,44.4,12.5,30.23,East,101,2.0,9.0,27,0.00,,---,0.00,VWS V14.01,2013-02-17 20:50:00,
2013-02-17 15:53:00,46.0,15.5,30.23,SE,134,3.0,9.0,29,0.00,,---,0.00,VWS V14.01,2013-02-17 20:53:00,
2013-02-17 15:55:00,44.7,12.8,30.23,West,262,5.0,8.0,27,0.00,,---,0.00,VWS V14.01,2013-02-17 20:55:00,
2013-02-17 15:59:00,46.3,14.2,30.23,ENE,72,3.0,5.0,27,0.00,,---,0.00,VWS V14.01,2013-02-17 20:59:00,
2013-02-17 16:00:00,44.5,14.2,30.22,East,79,13.0,18.0,29,0.00,,---,0.00,VWS V14.01,2013-02-17 21:00:00,
2013-02-17 16:04:00,46.2,14.9,30.23,ENE,65,0.0,4.0,28,0.00,,---,0.00,VWS V14.01,2013-02-17 21:04:00,
2013-02-17 16:05:00,44.6,13.5,30.23,ENE,58,2.0,14.0,28,0.00,,---,0.00,VWS V14.01,2013-02-17 21:05:00,
2013-02-17 16:09:00,45.9,14.6,30.23,SE,139,2.0,7.0,28,0.00,,---,0.00,VWS V14.01,2013-02-17 21:09:00,
2013-02-17 16:10:00,44.8,13.7,30.23,NNE,23,2.0,7.0,28,0.00,,---,0.00,VWS V14.01,2013-02-17 21:10:00,
2013-02-17 16:14:00,45.7,14.5,30.23,East,86,3.0,4.0,28,0.00,,---,0.00,VWS V14.01,2013-02-17 21:14:00,
2013-02-17 16:15:00,45.2,14.9,30.23,ENE,62,2.0,4.0,29,0.00,,---,0.00,VWS V14.01,2013-02-17 21:15:00,
2013-02-17 16:19:00,45.8,13.7,30.23,NE,49,1.0,6.0,27,0.00,,---,0.00,VWS V14.01,2013-02-17 21:19:00,
2013-02-17 16:20:00,45.4,13.4,30.23,ENE,70,0.0,12.0,27,0.00,,---,0.00,VWS V14.01,2013-02-17 21:20:00,
2013-02-17 16:24:00,46.5,15.2,30.23,SE,131,2.0,2.0,28,0.00,,---,0.00,VWS V14.01,2013-02-17 21:24:00,
2013-02-17 16:25:00,45.4,13.4,30.23,East,84,2.0,12.0,27,0.00,,---,0.00,VWS V14.01,2013-02-17 21:25:00,
2013-02-17 16:29:00,46.6,14.4,30.23,SE,132,0.0,6.0,27,0.00,,---,0.00,VWS V14.01,2013-02-17 21:29:00,
2013-02-17 16:30:00,45.5,13.5,30.23,East,84,9.0,9.0,27,0.00,,---,0.00,VWS V14.01,2013-02-17 21:30:00,
2013-02-17 16:34:00,46.9,15.5,30.23,NNE,31,0.0,3.0,28,0.00,,---,0.00,VWS V14.01,2013-02-17 21:34:00,
2013-02-17 16:35:00,45.5,14.3,30.23,ESE,104,7.0,9.0,28,0.00,,---,0.00,VWS V14.01,2013-02-17 21:35:00,
2013-02-17 16:39:00,47.2,16.6,30.23,East,95,9.0,9.0,29,0.00,,---,0.00,VWS V14.01,2013-02-17 21:39:00,
2013-02-17 16:40:00,45.6,13.6,30.23,East,87,1.0,10.0,27,0.00,,---,0.00,VWS V14.01,2013-02-17 21:40:00,
2013-02-17 16:44:00,46.6,15.3,30.23,South,190,2.0,6.0,28,0.00,,---,0.00,VWS V14.01,2013-02-17 21:44:00,
2013-02-17 16:45:00,45.5,13.5,30.23,ESE,118,0.0,7.0,27,0.00,,---,0.00,VWS V14.01,2013-02-17 21:45:00,
2013-02-17 16:49:00,46.0,14.7,30.23,ESE,102,2.0,13.0,28,0.00,,---,0.00,VWS V14.01,2013-02-17 21:49:00,
2013-02-17 16:50:00,45.9,13.8,30.23,ENE,60,5.0,9.0,27,0.00,,---,0.00,VWS V14.01,2013-02-17 21:50:00,
2013-02-17 16:54:00,46.3,15.0,30.23,ESE,117,7.0,7.0,28,0.00,,---,0.00,VWS V14.01,2013-02-17 21:54:00,
2013-02-17 16:55:00,46.2,14.9,30.23,NNE,23,4.0,9.0,28,0.00,,---,0.00,VWS V14.01,2013-02-17 21:55:00,
2013-02-17 16:59:00,46.1,15.6,30.23,SSW,203,0.0,3.0,29,0.00,,---,0.00,VWS V14.01,2013-02-17 21:59:00,
2013-02-17 17:00:00,46.2,14.1,30.23,ESE,123,4.0,7.0,27,0.00,,---,0.00,VWS V14.01,2013-02-17 22:00:00,
2013-02-17 17:04:00,46.1,15.6,30.22,ENE,71,0.0,5.0,29,0.00,,---,0.00,VWS V14.01,2013-02-17 22:04:00,
2013-02-17 17:05:00,46.3,15.0,30.23,ESE,112,2.0,5.0,28,0.00,,---,0.00,VWS V14.01,2013-02-17 22:05:00,
2013-02-17 17:09:00,46.3,16.6,30.23,SW,229,1.0,2.0,30,0.00,,---,0.00,VWS V14.01,2013-02-17 22:09:00,
2013-02-17 17:10:00,45.7,14.5,30.23,WSW,238,1.0,7.0,28,0.00,,---,0.00,VWS V14.01,2013-02-17 22:10:00,
2013-02-17 17:14:00,46.3,15.8,30.23,East,86,2.0,3.0,29,0.00,,---,0.00,VWS V14.01,2013-02-17 22:14:00,
2013-02-17 17:15:00,45.8,13.7,30.23,NE,43,0.0,5.0,27,0.00,,---,0.00,VWS V14.01,2013-02-17 22:15:00,
2013-02-17 17:19:00,45.9,14.6,30.23,SW,214,0.0,8.0,28,0.00,,---,0.00,VWS V14.01,2013-02-17 22:19:00,
2013-02-17 17:20:00,46.0,14.7,30.23,East,94,1.0,6.0,28,0.00,,---,0.00,VWS V14.01,2013-02-17 22:20:00,
2013-02-17 17:24:00,45.7,16.1,30.23,South,174,1.0,4.0,30,0.00,,---,0.00,VWS V14.01,2013-02-17 22:24:00,
2013-02-17 17:25:00,46.7,15.3,30.23,East,93,4.0,5.0,28,0.00,,---,0.00,VWS V14.01,2013-02-17 22:25:00,
2013-02-17 17:29:00,45.6,15.2,30.23,WSW,256,0.0,3.0,29,0.00,,---,0.00,VWS V14.01,2013-02-17 22:29:00,
2013-02-17 17:30:00,46.6,15.3,30.23,SSW,197,0.0,6.0,28,0.00,,---,0.00,VWS V14.01,2013-02-17 22:30:00,
2013-02-17 17:34:00,46.2,15.7,30.23,South,190,0.0,0.0,29,0.00,,---,0.00,VWS V14.01,2013-02-17 22:34:00,
2013-02-17 17:35:00,47.0,15.6,30.23,ESE,120,1.0,4.0,28,0.00,,---,0.00,VWS V14.01,2013-02-17 22:35:00,
2013-02-17 17:39:00,45.9,16.2,30.23,SE,128,0.0,1.0,30,0.00,,---,0.00,VWS V14.01,2013-02-17 22:39:00,
2013-02-17 17:40:00,46.9,14.7,30.23,ESE,109,6.0,11.0,27,0.00,,---,0.00,VWS V14.01,2013-02-17 22:40:00,
2013-02-17 17:44:00,45.2,15.6,30.23,ENE,65,0.0,2.0,30,0.00,,---,0.00,VWS V14.01,2013-02-17 22:44:00,
2013-02-17 17:45:00,46.6,15.3,30.23,ESE,109,13.0,13.0,28,0.00,,---,0.00,VWS V14.01,2013-02-17 22:45:00,
2013-02-17 17:49:00,45.0,16.2,30.23,East,84,3.0,3.0,31,0.00,,---,0.00,VWS V14.01,2013-02-17 22:49:00,
2013-02-17 17:50:00,46.0,15.5,30.23,SSW,207,0.0,13.0,29,0.00,,---,0.00,VWS V14.01,2013-02-17 22:50:00,
2013-02-17 17:54:00,44.5,15.8,30.23,East,94,0.0,1.0,31,0.00,,---,0.00,VWS V14.01,2013-02-17 22:54:00,
2013-02-17 17:55:00,46.2,15.7,30.23,West,259,0.0,7.0,29,0.00,,---,0.00,VWS V14.01,2013-02-17 22:55:00,
2013-02-17 17:59:00,44.1,15.4,30.23,North,355,1.0,2.0,31,0.00,,---,0.00,VWS V14.01,2013-02-17 22:59:00,
2013-02-17 18:00:00,46.1,15.6,30.23,ESE,103,2.0,3.0,29,0.00,,---,0.00,VWS V14.01,2013-02-17 23:00:00,
2013-02-17 18:04:00,43.6,15.7,30.23,East,94,2.0,5.0,32,0.00,,---,0.00,VWS V14.01,2013-02-17 23:04:00,
2013-02-17 18:05:00,46.3,15.8,30.22,SE,145,2.0,5.0,29,0.00,,---,0.00,VWS V14.01,2013-02-17 23:05:00,
2013-02-17 18:09:00,43.1,16.0,30.23,East,82,0.0,1.0,33,0.00,,---,0.00,VWS V14.01,2013-02-17 23:09:00,
2013-02-17 18:10:00,46.3,15.8,30.23,SSE,160,1.0,6.0,29,0.00,,---,0.00,VWS V14.01,2013-02-17 23:10:00,
2013-02-17 18:14:00,42.8,16.4,30.24,ENE,74,0.0,2.0,34,0.00,,---,0.00,VWS V14.01,2013-02-17 23:14:00,
2013-02-17 18:15:00,46.2,14.9,30.23,SE,135,0.0,8.0,28,0.00,,---,0.00,VWS V14.01,2013-02-17 23:15:00,
2013-02-17 18:19:00,42.3,17.3,30.23,ENE,73,0.0,0.0,36,0.00,,---,0.00,VWS V14.01,2013-02-17 23:19:00,
2013-02-17 18:20:00,45.7,15.3,30.23,ESE,104,3.0,8.0,29,0.00,,---,0.00,VWS V14.01,2013-02-17 23:20:00,
2013-02-17 18:24:00,41.5,17.2,30.23,ENE,73,0.0,0.0,37,0.00,,---,0.00,VWS V14.01,2013-02-17 23:24:00,
2013-02-17 18:25:00,45.6,15.2,30.23,SE,135,0.0,6.0,29,0.00,,---,0.00,VWS V14.01,2013-02-17 23:25:00,
2013-02-17 18:29:00,40.5,16.9,30.23,ENE,73,0.0,0.0,38,0.00,,---,0.00,VWS V14.01,2013-02-17 23:29:00,
2013-02-17 18:30:00,45.7,16.1,30.23,South,190,0.0,3.0,30,0.00,,---,0.00,VWS V14.01,2013-02-17 23:30:00,
2013-02-17 18:34:00,39.9,17.0,30.24,ENE,72,0.0,1.0,39,0.00,,---,0.00,VWS V14.01,2013-02-17 23:34:00,
2013-02-17 18:35:00,46.3,15.8,30.23,SSW,194,1.0,2.0,29,0.00,,---,0.00,VWS V14.01,2013-02-17 23:35:00,
2013-02-17 18:39:00,39.3,17.0,30.24,ENE,74,0.0,0.0,40,0.00,,---,0.00,VWS V14.01,2013-02-17 23:39:00,
2013-02-17 18:40:00,45.7,16.1,30.23,SE,135,0.0,1.0,30,0.00,,---,0.00,VWS V14.01,2013-02-17 23:40:00,
2013-02-17 18:44:00,38.7,18.1,30.24,ENE,73,0.0,1.0,43,0.00,,---,0.00,VWS V14.01,2013-02-17 23:44:00,
2013-02-17 18:45:00,45.0,15.4,30.23,ENE,65,0.0,2.0,30,0.00,,---,0.00,VWS V14.01,2013-02-17 23:45:00,
2013-02-17 18:49:00,38.2,18.2,30.24,ENE,73,0.0,0.0,44,0.00,,---,0.00,VWS V14.01,2013-02-17 23:49:00,
2013-02-17 18:50:00,44.8,15.3,30.23,East,95,1.0,3.0,30,0.00,,---,0.00,VWS V14.01,2013-02-17 23:50:00,
2013-02-17 18:54:00,37.5,18.1,30.24,ENE,73,0.0,0.0,45,0.00,,---,0.00,VWS V14.01,2013-02-17 23:54:00,
2013-02-17 18:55:00,44.4,16.4,30.23,East,93,0.0,1.0,32,0.00,,---,0.00,VWS V14.01,2013-02-17 23:55:00,
2013-02-17 18:59:00,36.8,18.0,30.24,ENE,73,0.0,0.0,46,0.00,,---,0.00,VWS V14.01,2013-02-17 23:59:00,
2013-02-17 19:00:00,43.9,16.0,30.23,NNE,26,0.0,2.0,32,0.00,,---,0.00,VWS V14.01,2013-02-18 00:00:00,
2013-02-17 19:04:00,36.2,17.9,30.24,ENE,73,0.0,0.0,47,0.00,,---,0.00,VWS V14.01,2013-02-18 00:04:00,
2013-02-17 19:05:00,43.4,16.2,30.23,East,88,0.0,5.0,33,0.00,,---,0.00,VWS V14.01,2013-02-18 00:05:00,
2013-02-17 19:09:00,35.7,18.0,30.24,ENE,73,0.0,0.0,48,0.00,,---,0.00,VWS V14.01,2013-02-18 00:09:00,
2013-02-17 19:10:00,43.0,15.9,30.24,ENE,73,2.0,4.0,33,0.00,,---,0.00,VWS V14.01,2013-02-18 00:10:00,
2013-02-17 19:14:00,35.2,18.9,30.25,ENE,73,0.0,0.0,51,0.00,,---,0.00,VWS V14.01,2013-02-18 00:14:00,
2013-02-17 19:15:00,42.7,16.3,30.24,ENE,73,0.0,2.0,34,0.00,,---,0.00,VWS V14.01,2013-02-18 00:15:00,
2013-02-17 19:19:00,34.7,18.4,30.25,ENE,72,0.0,0.0,51,0.00,,---,0.00,VWS V14.01,2013-02-18 00:19:00,
2013-02-17 19:20:00,42.2,17.8,30.24,ENE,73,0.0,0.0,37,0.00,,---,0.00,VWS V14.01,2013-02-18 00:20:00,
2013-02-17 19:24:00,34.3,19.4,30.24,ENE,73,0.0,0.0,54,0.00,,---,0.00,VWS V14.01,2013-02-18 00:24:00,
2013-02-17 19:25:00,41.3,17.0,30.23,ENE,73,0.0,0.0,37,0.00,,---,0.00,VWS V14.01,2013-02-18 00:25:00,
2013-02-17 19:29:00,33.8,19.8,30.24,ENE,73,0.0,0.0,56,0.00,,---,0.00,VWS V14.01,2013-02-18 00:29:00,
2013-02-17 19:30:00,40.3,16.7,30.23,ENE,72,0.0,0.0,38,0.00,,---,0.00,VWS V14.01,2013-02-18 00:30:00,
2013-02-17 19:34:00,33.5,19.5,30.24,ENE,73,0.0,0.0,56,0.00,,---,0.00,VWS V14.01,2013-02-18 00:34:00,
2013-02-17 19:35:00,39.7,17.4,30.24,ENE,72,0.0,1.0,40,0.00,,---,0.00,VWS V14.01,2013-02-18 00:35:00,
2013-02-17 19:39:00,33.1,18.3,30.24,ENE,73,0.0,0.0,54,0.00,,---,0.00,VWS V14.01,2013-02-18 00:39:00,
2013-02-17 19:40:00,39.1,17.4,30.24,ENE,74,0.0,0.0,41,0.00,,---,0.00,VWS V14.01,2013-02-18 00:40:00,
2013-02-17 19:44:00,32.6,17.8,30.24,ENE,72,0.0,0.0,54,0.00,,---,0.00,VWS V14.01,2013-02-18 00:44:00,
2013-02-17 19:45:00,38.6,18.0,30.24,ENE,73,0.0,1.0,43,0.00,,---,0.00,VWS V14.01,2013-02-18 00:45:00,
2013-02-17 19:49:00,32.0,18.1,30.25,ENE,72,0.0,0.0,56,0.00,,---,0.00,VWS V14.01,2013-02-18 00:49:00,
2013-02-17 19:50:00,38.0,18.6,30.24,ENE,73,0.0,0.0,45,0.00,,---,0.00,VWS V14.01,2013-02-18 00:50:00,
2013-02-17 19:54:00,31.6,18.5,30.25,ENE,72,0.0,0.0,58,0.00,,---,0.00,VWS V14.01,2013-02-18 00:54:00,
2013-02-17 19:55:00,37.3,17.9,30.24,ENE,73,0.0,0.0,45,0.00,,---,0.00,VWS V14.01,2013-02-18 00:55:00,
2013-02-17 19:59:00,31.7,18.2,30.25,ENE,72,0.0,0.0,57,0.00,,---,0.00,VWS V14.01,2013-02-18 00:59:00,
2013-02-17 20:00:00,36.6,17.3,30.24,ENE,73,0.0,0.0,45,0.00,,---,0.00,VWS V14.01,2013-02-18 01:00:00,
2013-02-17 20:04:00,31.8,17.5,30.25,ENE,72,0.0,0.0,55,0.00,,---,0.00,VWS V14.01,2013-02-18 01:04:00,
2013-02-17 20:05:00,36.1,17.3,30.24,ENE,73,0.0,0.0,46,0.00,,---,0.00,VWS V14.01,2013-02-18 01:05:00,
2013-02-17 20:09:00,31.7,18.2,30.25,ENE,72,0.0,0.0,57,0.00,,---,0.00,VWS V14.01,2013-02-18 01:09:00,
2013-02-17 20:10:00,35.6,18.3,30.24,ENE,73,0.0,0.0,49,0.00,,---,0.00,VWS V14.01,2013-02-18 01:10:00,
2013-02-17 20:14:00,31.3,18.2,30.25,ENE,72,0.0,0.0,58,0.00,,---,0.00,VWS V14.01,2013-02-18 01:14:00,
2013-02-17 20:15:00,35.1,18.4,30.25,ENE,73,0.0,0.0,50,0.00,,---,0.00,VWS V14.01,2013-02-18 01:15:00,
2013-02-17 20:19:00,30.9,19.8,30.25,ENE,73,0.0,0.0,63,0.00,,---,0.00,VWS V14.01,2013-02-18 01:19:00,
2013-02-17 20:20:00,34.6,18.8,30.25,ENE,72,0.0,0.0,52,0.00,,---,0.00,VWS V14.01,2013-02-18 01:20:00,
2013-02-17 20:24:00,30.5,19.8,30.26,ENE,72,0.0,0.0,64,0.00,,---,0.00,VWS V14.01,2013-02-18 01:24:00,
2013-02-17 20:25:00,34.2,19.3,30.24,ENE,72,0.0,0.0,54,0.00,,---,0.00,VWS V14.01,2013-02-18 01:25:00,
2013-02-17 20:29:00,30.3,19.6,30.25,ENE,72,0.0,0.0,64,0.00,,---,0.00,VWS V14.01,2013-02-18 01:29:00,
2013-02-17 20:30:00,33.7,20.1,30.24,ENE,73,0.0,0.0,57,0.00,,---,0.00,VWS V14.01,2013-02-18 01:30:00,
2013-02-17 20:34:00,30.1,19.8,30.26,ENE,72,0.0,0.0,65,0.00,,---,0.00,VWS V14.01,2013-02-18 01:34:00,
2013-02-17 20:35:00,33.4,19.4,30.24,ENE,72,0.0,0.0,56,0.00,,---,0.00,VWS V14.01,2013-02-18 01:35:00,
2013-02-17 20:39:00,29.7,20.1,30.26,ENE,72,0.0,0.0,67,0.00,,---,0.00,VWS V14.01,2013-02-18 01:39:00,
2013-02-17 20:40:00,33.0,18.2,30.24,ENE,72,0.0,0.0,54,0.00,,---,0.00,VWS V14.01,2013-02-18 01:40:00,
2013-02-17 20:44:00,29.4,19.5,30.26,ENE,72,0.0,0.0,66,0.00,,---,0.00,VWS V14.01,2013-02-18 01:44:00,
2013-02-17 20:45:00,32.5,18.1,30.25,ENE,72,0.0,0.0,55,0.00,,---,0.00,VWS V14.01,2013-02-18 01:45:00,
2013-02-17 20:49:00,29.6,18.6,30.26,ENE,72,0.0,0.0,63,0.00,,---,0.00,VWS V14.01,2013-02-18 01:49:00,
2013-02-17 20:50:00,31.8,17.9,30.25,ENE,72,0.0,0.0,56,0.00,,---,0.00,VWS V14.01,2013-02-18 01:50:00,
2013-02-17 20:54:00,29.6,18.9,30.26,ENE,72,0.0,0.0,64,0.00,,---,0.00,VWS V14.01,2013-02-18 01:54:00,
2013-02-17 20:55:00,31.5,18.4,30.25,ENE,73,0.0,0.0,58,0.00,,---,0.00,VWS V14.01,2013-02-18 01:55:00,
2013-02-17 20:59:00,29.3,18.6,30.26,ENE,72,0.0,0.0,64,0.00,,---,0.00,VWS V14.01,2013-02-18 01:59:00,
2013-02-17 21:00:00,31.7,18.2,30.25,ENE,72,0.0,0.0,57,0.00,,---,0.00,VWS V14.01,2013-02-18 02:00:00,
2013-02-17 21:04:00,29.1,18.5,30.26,ENE,72,0.0,0.0,64,0.00,,---,0.00,VWS V14.01,2013-02-18 02:04:00,
2013-02-17 21:05:00,31.8,17.5,30.25,ENE,72,0.0,0.0,55,0.00,,---,0.00,VWS V14.01,2013-02-18 02:05:00,
2013-02-17 21:09:00,28.9,19.0,30.26,ENE,72,0.0,0.0,66,0.00,,---,0.00,VWS V14.01,2013-02-18 02:09:00,
2013-02-17 21:10:00,31.6,17.3,30.25,ENE,72,0.0,0.0,55,0.00,,---,0.00,VWS V14.01,2013-02-18 02:10:00,
2013-02-17 21:14:00,28.8,19.6,30.26,ENE,72,0.0,0.0,68,0.00,,---,0.00,VWS V14.01,2013-02-18 02:14:00,
2013-02-17 21:15:00,31.3,19.8,30.25,ENE,72,0.0,0.0,62,0.00,,---,0.00,VWS V14.01,2013-02-18 02:15:00,
2013-02-17 21:20:00,28.6,20.4,30.27,ENE,72,0.0,0.0,71,0.00,,---,0.00,VWS V14.01,2013-02-18 02:20:00,
2013-02-17 21:25:00,28.4,20.5,30.27,ENE,72,0.0,0.0,72,0.00,,---,0.00,VWS V14.01,2013-02-18 02:25:00,
2013-02-17 21:30:00,28.2,21.0,30.26,ENE,72,0.0,0.0,74,0.00,,---,0.00,VWS V14.01,2013-02-18 02:30:00,
2013-02-17 21:35:00,27.9,20.7,30.27,ENE,72,0.0,0.0,74,0.00,,---,0.00,VWS V14.01,2013-02-18 02:35:00,
2013-02-17 21:40:00,27.6,20.1,30.27,ENE,72,0.0,0.0,73,0.00,,---,0.00,VWS V14.01,2013-02-18 02:40:00,
2013-02-17 21:45:00,27.6,18.4,30.27,ENE,72,0.0,0.0,68,0.00,,---,0.00,VWS V14.01,2013-02-18 02:45:00,
2013-02-17 21:50:00,27.5,18.7,30.27,ENE,72,0.0,0.0,69,0.00,,---,0.00,VWS V14.01,2013-02-18 02:50:00,
2013-02-17 21:55:00,27.6,19.1,30.27,ENE,72,0.0,0.0,70,0.00,,---,0.00,VWS V14.01,2013-02-18 02:55:00,
2013-02-17 22:00:00,27.8,18.6,30.27,ENE,72,0.0,0.0,68,0.00,,---,0.00,VWS V14.01,2013-02-18 03:00:00,
2013-02-17 22:05:00,27.9,19.4,30.27,ENE,72,0.0,0.0,70,0.00,,---,0.00,VWS V14.01,2013-02-18 03:05:00,
2013-02-17 22:10:00,27.7,19.9,30.27,ENE,72,0.0,0.0,72,0.00,,---,0.00,VWS V14.01,2013-02-18 03:10:00,
2013-02-17 22:15:00,27.7,19.5,30.27,ENE,72,0.0,0.0,71,0.00,,---,0.00,VWS V14.01,2013-02-18 03:15:00,
2013-02-17 22:20:00,27.5,19.4,30.27,ENE,72,0.0,0.0,71,0.00,,---,0.00,VWS V14.01,2013-02-18 03:20:00,
2013-02-17 22:25:00,27.3,19.8,30.27,ENE,72,0.0,0.0,73,0.00,,---,0.00,VWS V14.01,2013-02-18 03:25:00,
2013-02-17 22:30:00,27.1,19.6,30.27,ENE,72,0.0,0.0,73,0.00,,---,0.00,VWS V14.01,2013-02-18 03:30:00,
2013-02-17 22:35:00,27.0,19.5,30.28,ENE,72,0.0,0.0,73,0.00,,---,0.00,VWS V14.01,2013-02-18 03:35:00,
2013-02-17 22:40:00,26.7,19.2,30.28,ENE,72,0.0,0.0,73,0.00,,---,0.00,VWS V14.01,2013-02-18 03:40:00,
2013-02-17 22:45:00,26.5,19.7,30.28,ENE,72,0.0,0.0,75,0.00,,---,0.00,VWS V14.01,2013-02-18 03:45:00,
2013-02-17 22:50:00,26.5,20.0,30.27,ENE,72,0.0,0.0,76,0.00,,---,0.00,VWS V14.01,2013-02-18 03:50:00,
2013-02-17 22:55:00,26.5,20.3,30.28,ENE,72,0.0,1.0,77,0.00,,---,0.00,VWS V14.01,2013-02-18 03:55:00,
2013-02-17 23:00:00,26.5,20.0,30.28,ENE,72,0.0,0.0,76,0.00,,---,0.00,VWS V14.01,2013-02-18 04:00:00,
2013-02-17 23:05:00,26.5,19.7,30.28,ENE,72,0.0,0.0,75,0.00,,---,0.00,VWS V14.01,2013-02-18 04:05:00,
2013-02-17 23:10:00,26.6,20.1,30.28,ENE,72,0.0,0.0,76,0.00,,---,0.00,VWS V14.01,2013-02-18 04:10:00,
2013-02-17 23:15:00,26.5,20.0,30.28,ENE,72,0.0,0.0,76,0.00,,---,0.00,VWS V14.01,2013-02-18 04:15:00,
2013-02-17 23:20:00,26.4,19.9,30.28,ENE,72,0.0,0.0,76,0.00,,---,0.00,VWS V14.01,2013-02-18 04:20:00,
2013-02-17 23:25:00,26.1,19.3,30.28,ENE,72,0.0,0.0,75,0.00,,---,0.00,VWS V14.01,2013-02-18 04:25:00,
2013-02-17 23:30:00,26.0,19.5,30.27,ENE,72,0.0,0.0,76,0.00,,---,0.00,VWS V14.01,2013-02-18 04:30:00,
2013-02-17 23:35:00,25.9,19.1,30.27,ENE,72,0.0,0.0,75,0.00,,---,0.00,VWS V14.01,2013-02-18 04:35:00,
2013-02-17 23:40:00,25.5,19.0,30.27,ENE,72,0.0,0.0,76,0.00,,---,0.00,VWS V14.01,2013-02-18 04:40:00,
2013-02-17 23:45:00,25.5,19.3,30.27,ENE,72,0.0,0.0,77,0.00,,---,0.00,VWS V14.01,2013-02-18 04:45:00,
2013-02-17 23:50:00,25.5,19.0,30.27,ENE,72,0.0,0.0,76,0.00,,---,0.00,VWS V14.01,2013-02-18 04:50:00,
2013-02-17 23:55:00,25.5,19.0,30.27,ENE,72,0.0,0.0,76,0.00,,---,0.00,VWS V14.01,2013-02-18 04:55:00,